Change the Weather History Date:

Monday, February 18, 2013

  Actual Average Record
Temperature  
Mean Temperature 24 °F -  
Max Temperature 37 °F 33 °F 56 °F (1951)
Min Temperature 10 °F 19 °F -11 °F (2006)
Degree Days  
Heating Degree Days 42    
Moisture  
Dew Point 18 °F    
Average Humidity 71    
Maximum Humidity 87    
Minimum Humidity 54    
Precipitation  
Precipitation 0.00 in - - ()
Sea Level Pressure  
Sea Level Pressure 29.75 in    
Wind  
Wind Speed 17 mph (NW)    
Max Wind Speed 32 mph    
Max Gust Speed 38 mph    
Visibility 10 miles    
Events Snow    
Averages and records for this station are not official NWS values.
T = Trace of Precipitation, MM = Missing Value Source: NWS Daily Summary

Daily Weather History Graph

Daily Weather History Graph

Search for Another Location

Airport or City:

Trip Planner

Search our weather history database for the weather conditions in past years. The results will help you decide how hot, cold, wet, or windy it might be!

Date:

Astronomy

Feb. 18, 2013 Rise Set
Actual Time 7:16 AM CST 5:59 PM CST
Civil Twilight 6:48 AM CST 6:28 PM CST
Nautical Twilight 6:14 AM CST 7:01 PM CST
Astronomical Twilight 5:42 AM CST 7:34 PM CST
Moon 11:42 AM CST (2/18) 2:01 AM CST (2/18)
Length of Visible Light 11h 40m
Length of Day
10h 42m
First Quarter, 58% of the Moon is Illuminated
Feb 18
First Quarter
Feb 25
Full
Mar 4
Last Quarter
Mar 11
New
Mar 19
First Quarter

Hourly Weather History & Observations

Time (CST) Temp. Windchill Dew Point Humidity Pressure Visibility Wind Dir Wind Speed Gust Speed Precip Events Conditions
12:15 AM 37.4 °F 30.3 °F 30.2 °F 75% 29.56 in 10.0 mi SW 10.4 mph - N/A   Clear
12:35 AM 37.4 °F 30.8 °F 30.2 °F 75% 29.56 in 10.0 mi WSW 9.2 mph - N/A   Clear
12:55 AM 35.6 °F 28.0 °F 30.2 °F 81% 29.56 in 10.0 mi West 10.4 mph - N/A   Clear
1:15 AM 37.4 °F 28.5 °F 30.2 °F 75% 29.58 in 10.0 mi WNW 15.0 mph - N/A   Clear
1:35 AM 35.6 °F 27.5 °F 30.2 °F 81% 29.58 in 10.0 mi NW 11.5 mph - N/A   Clear
1:55 AM 35.6 °F 28.0 °F 30.2 °F 81% 29.59 in 10.0 mi WNW 10.4 mph - N/A   Clear
2:15 AM 35.6 °F 28.6 °F 30.2 °F 81% 29.59 in 10.0 mi NW 9.2 mph - N/A   Clear
2:35 AM 33.8 °F 25.3 °F 30.2 °F 87% 29.58 in 10.0 mi NW 11.5 mph - N/A   Clear
2:55 AM 33.8 °F 25.3 °F 30.2 °F 87% 29.57 in 10.0 mi NW 11.5 mph - N/A   Clear
3:15 AM 33.8 °F 24.8 °F 30.2 °F 87% 29.57 in 10.0 mi NW 12.7 mph - N/A   Clear
3:35 AM 35.6 °F 26.2 °F 30.2 °F 81% 29.56 in 10.0 mi NW 15.0 mph - N/A   Clear
3:55 AM 35.6 °F 25.9 °F 30.2 °F 81% 29.56 in 10.0 mi NW 16.1 mph 24.2 mph N/A   Clear
4:15 AM 35.6 °F 26.2 °F 28.4 °F 75% 29.56 in 10.0 mi NW 15.0 mph 23.0 mph N/A   Clear
4:35 AM 35.6 °F 27.5 °F 28.4 °F 75% 29.57 in 10.0 mi NW 11.5 mph 19.6 mph N/A   Clear
4:55 AM 35.6 °F 27.1 °F 28.4 °F 75% 29.56 in 10.0 mi NW 12.7 mph - N/A   Clear
5:15 AM 35.6 °F 27.5 °F 28.4 °F 75% 29.56 in 10.0 mi NW 11.5 mph 17.3 mph N/A   Clear
5:35 AM 35.6 °F 28.0 °F 28.4 °F 75% 29.57 in 10.0 mi NW 10.4 mph - N/A   Clear
5:55 AM 35.6 °F 25.2 °F 28.4 °F 75% 29.57 in 10.0 mi NW 18.4 mph 23.0 mph N/A   Clear
6:15 AM 35.6 °F 25.9 °F 28.4 °F 75% 29.58 in 10.0 mi NW 16.1 mph 20.7 mph N/A   Clear
6:35 AM 35.6 °F 26.2 °F 28.4 °F 75% 29.59 in 10.0 mi NW 15.0 mph 23.0 mph N/A   Clear
6:55 AM 35.6 °F 26.6 °F 28.4 °F 75% 29.60 in 10.0 mi NW 13.8 mph - N/A   Mostly Cloudy
7:15 AM 35.6 °F 26.2 °F 28.4 °F 75% 29.61 in 10.0 mi NW 15.0 mph 19.6 mph N/A   Overcast
7:35 AM 35.6 °F 25.9 °F 28.4 °F 75% 29.62 in 10.0 mi NW 16.1 mph 21.9 mph N/A   Overcast
7:55 AM 35.6 °F 24.2 °F 28.4 °F 75% 29.63 in 10.0 mi NNW 21.9 mph 31.1 mph N/A   Overcast
8:15 AM 35.6 °F 24.2 °F 28.4 °F 75% 29.63 in 10.0 mi NNW 21.9 mph 32.2 mph N/A   Overcast
8:35 AM 33.8 °F 21.0 °F 26.6 °F 75% 29.64 in 10.0 mi NW 25.3 mph 33.4 mph N/A   Overcast
8:55 AM 32.0 °F 19.5 °F 26.6 °F 80% 29.66 in 10.0 mi NW 21.9 mph 28.8 mph N/A   Mostly Cloudy
9:15 AM 30.2 °F 17.8 °F 21.2 °F 69% 29.67 in 10.0 mi NNW 19.6 mph 35.7 mph N/A   Scattered Clouds
9:35 AM 28.4 °F 14.7 °F 19.4 °F 69% 29.69 in 10.0 mi NW 21.9 mph 33.4 mph N/A   Scattered Clouds
9:55 AM 26.6 °F 11.7 °F 17.6 °F 69% 29.72 in 10.0 mi NNW 24.2 mph 34.5 mph N/A   Scattered Clouds
10:15 AM 26.6 °F 12.7 °F 17.6 °F 69% 29.72 in 10.0 mi NNW 20.7 mph 32.2 mph N/A   Scattered Clouds
10:35 AM 26.6 °F 13.1 °F 17.6 °F 69% 29.74 in 10.0 mi NNW 19.6 mph 29.9 mph N/A   Scattered Clouds
10:55 AM 26.6 °F 13.4 °F 15.8 °F 64% 29.74 in 10.0 mi NNW 18.4 mph 31.1 mph N/A   Scattered Clouds
11:15 AM 26.6 °F 12.7 °F 15.8 °F 64% 29.75 in 10.0 mi NNW 20.7 mph 29.9 mph N/A   Mostly Cloudy
11:35 AM 26.6 °F 11.7 °F 15.8 °F 64% 29.76 in 10.0 mi NNW 24.2 mph 31.1 mph N/A   Scattered Clouds
11:55 AM 26.6 °F 12.7 °F 15.8 °F 64% 29.76 in 10.0 mi NNW 20.7 mph 34.5 mph N/A   Scattered Clouds
12:15 PM 26.6 °F 12.0 °F 15.8 °F 64% 29.77 in 10.0 mi NW 23.0 mph 36.8 mph N/A   Mostly Cloudy
12:35 PM 26.6 °F 12.7 °F 15.8 °F 64% 29.78 in 10.0 mi NW 20.7 mph 34.5 mph N/A   Overcast
12:55 PM 26.6 °F 11.1 °F 15.8 °F 64% 29.78 in 10.0 mi NW 26.5 mph 31.1 mph N/A   Overcast
1:15 PM 26.6 °F 12.0 °F 15.8 °F 64% 29.79 in 10.0 mi NW 23.0 mph 35.7 mph N/A   Overcast
1:35 PM 26.6 °F 13.1 °F 14.0 °F 59% 29.79 in 10.0 mi NNW 19.6 mph 28.8 mph N/A   Overcast
1:55 PM 24.8 °F 8.4 °F 12.2 °F 59% 29.80 in 10.0 mi NW 27.6 mph 36.8 mph N/A   Overcast
2:15 PM 24.8 °F 9.0 °F 12.2 °F 59% 29.81 in 10.0 mi NW 25.3 mph 38.0 mph N/A   Overcast
2:35 PM 24.8 °F 10.0 °F 12.2 °F 59% 29.81 in 10.0 mi NW 21.9 mph 33.4 mph N/A   Overcast
2:55 PM 24.8 °F 10.0 °F 12.2 °F 59% 29.82 in 10.0 mi NNW 21.9 mph 36.8 mph N/A   Overcast
3:15 PM 24.8 °F 7.9 °F 10.4 °F 54% 29.82 in 10.0 mi NW 29.9 mph 36.8 mph N/A   Mostly Cloudy
3:35 PM 24.8 °F 10.0 °F 10.4 °F 54% 29.83 in 10.0 mi NW 21.9 mph 34.5 mph N/A   Mostly Cloudy
3:55 PM 23.0 °F 6.3 °F 10.4 °F 59% 29.84 in 10.0 mi NW 26.5 mph 36.8 mph N/A   Overcast
4:15 PM 23.0 °F 8.0 °F 12.2 °F 63% 29.84 in 10.0 mi NW 20.7 mph 32.2 mph N/A Snow Snow
4:35 PM 21.2 °F 6.4 °F 12.2 °F 68% 29.85 in 10.0 mi NNW 18.4 mph 27.6 mph N/A Snow Light Snow
4:55 PM 21.2 °F 4.9 °F 10.4 °F 63% 29.86 in 10.0 mi NW 23.0 mph 33.4 mph N/A   Overcast
5:15 PM 19.4 °F 2.1 °F 10.4 °F 68% 29.87 in 10.0 mi NW 24.2 mph 34.5 mph N/A   Mostly Cloudy
5:35 PM 19.4 °F 2.5 °F 10.4 °F 68% 29.88 in 10.0 mi NW 23.0 mph 35.7 mph N/A   Overcast
5:55 PM 17.6 °F -2.5 °F 8.6 °F 68% 29.88 in 10.0 mi NW 32.2 mph 38.0 mph N/A Snow Light Snow
6:15 PM 17.6 °F -0.6 °F 10.4 °F 73% 29.90 in 5.0 mi NW 25.3 mph 35.7 mph N/A Snow Light Snow
6:35 PM 15.8 °F -1.1 °F 10.4 °F 79% 29.91 in 4.0 mi NNW 19.6 mph 35.7 mph N/A Snow Light Snow
6:55 PM 15.8 °F -3.1 °F 8.6 °F 73% 29.91 in 10.0 mi NW 25.3 mph 32.2 mph N/A   Overcast
7:15 PM 15.8 °F -1.9 °F 6.8 °F 68% 29.92 in 10.0 mi NW 21.9 mph 36.8 mph N/A   Overcast
7:35 PM 15.8 °F -2.3 °F 6.8 °F 68% 29.92 in 10.0 mi NW 23.0 mph 32.2 mph N/A   Mostly Cloudy
7:55 PM 15.8 °F -1.5 °F 6.8 °F 68% 29.92 in 10.0 mi NW 20.7 mph 27.6 mph N/A   Mostly Cloudy
8:15 PM 15.8 °F -0.2 °F 8.6 °F 73% 29.92 in 10.0 mi NW 17.3 mph 29.9 mph N/A   Mostly Cloudy
8:35 PM 15.8 °F -0.2 °F 8.6 °F 73% 29.92 in 10.0 mi NW 17.3 mph 26.5 mph N/A Snow Light Snow
8:55 PM 12.2 °F -6.3 °F 6.8 °F 79% 29.92 in 7.0 mi NW 20.7 mph 26.5 mph N/A Snow Light Snow
9:15 PM 12.2 °F -5.8 °F 3.2 °F 67% 29.93 in 10.0 mi NW 19.6 mph 29.9 mph N/A Snow Light Snow
9:35 PM 12.2 °F -7.5 °F 3.2 °F 67% 29.94 in 10.0 mi NNW 24.2 mph 28.8 mph N/A   Scattered Clouds
9:55 PM 10.4 °F -8.6 °F 3.2 °F 73% 29.95 in 10.0 mi NNW 20.7 mph 29.9 mph N/A   Clear
10:15 PM 10.4 °F -9.9 °F 3.2 °F 73% 29.96 in 10.0 mi NW 24.2 mph 33.4 mph N/A   Scattered Clouds
10:35 PM 10.4 °F -9.5 °F 1.4 °F 67% 29.97 in 10.0 mi NW 23.0 mph 32.2 mph N/A   Mostly Cloudy
10:55 PM 10.4 °F -9.5 °F 3.2 °F 73% 29.98 in 10.0 mi NW 23.0 mph 32.2 mph N/A   Overcast
11:15 PM 10.4 °F -9.1 °F 3.2 °F 73% 29.98 in 10.0 mi NW 21.9 mph 33.4 mph N/A   Overcast
11:35 PM 10.4 °F -9.5 °F 3.2 °F 73% 29.99 in 10.0 mi NW 23.0 mph 29.9 mph N/A   Mostly Cloudy
11:55 PM 10.4 °F -9.5 °F 5.0 °F 79% 29.99 in 10.0 mi NW 23.0 mph 29.9 mph N/A   Mostly Cloudy